sat.trackr.live / text

‹ back to catalog

ONEWEB-0625

NORAD 55166 · 2023-004AC

PAYLOAD ACTIVE UNKNOWN

§ Identity

Operator
Country
UK
Launch date
2023-01-10
Launch site
AFETR
Launch vehicle
Mass (kg)
RCS (m²)

Purposes: comms

External: N2YO · Heavens-Above · Gunter

§ Orbital elements

Epoch: 2026-09-20T00:06:00.675072Z

Period
109.29 min
Inclination
87.9205°
Eccentricity
0.0001954
Mean motion
13.17647470 rev/d
Perigee alt
1,192.2 km
Apogee alt
1,195.2 km
Semi-major
7,571.9 km
B*
1.3565e-4
RAAN
347.0466°
Arg perigee
97.8260°
Mean anomaly
262.3093°
Rev number
18,006

§ Raw data

ONEWEB-06251 55166U 23004AC  26263.00417448  .00000066  00000+0  13565-3 0  99932 55166  87.9205 347.0466 0001954  97.8260 262.3093 13.17647470180067

JSON: /api/v1/satellites/55166 · /tle

For live sub-satellite position, see the globe view (requires WebGL).

§ Visibility from observer

Set your observer location to see the next 7 days of passes ≥ 10°. The values pass through the URL so the page stays shareable.

No JS? Fill the form by hand. The geolocation button needs JavaScript.